DLH3A EHAM-EDDF

Flight info

Callsign DLH3A
Flight time 0h 53m
Altitude 33000
Route EDUPO Z739 MISGO DCT DIXAT DIXAT1B
Aircraft A320/M-SDE3FGHIRWY/LB1

Departure

Time 2026-04-17 12:31
Airport Amsterdam Airport Schiphol (EHAM)

Arrival

Time 2026-04-17 13:25
Airport Frankfurt Main Airport (EDDF)
Time Latitude Longitude Altitude Speed Heading
2026-04-17 12:09 52.30539 4.76516 -1 ft 0 kts 58°
2026-04-17 12:22 52.30533 4.76499 -1 ft 2 kts 58°
2026-04-17 12:23 52.30524 4.76476 -1 ft 3 kts 66°
2026-04-17 12:23 52.30519 4.76447 -1 ft 3 kts 102°
2026-04-17 12:23 52.30526 4.76421 -1 ft 3 kts 139°
2026-04-17 12:23 52.30531 4.76414 -1 ft 0 kts 150°
2026-04-17 12:25 52.30521 4.76423 -1 ft 5 kts 151°
2026-04-17 12:26 52.30488 4.76454 -1 ft 7 kts 147°
2026-04-17 12:26 52.30426 4.76518 -1 ft 12 kts 148°
2026-04-17 12:26 52.30355 4.76605 -1 ft 13 kts 121°
2026-04-17 12:26 52.30317 4.76740 -1 ft 13 kts 135°
2026-04-17 12:27 52.30329 4.76867 -1 ft 12 kts 59°
2026-04-17 12:27 52.30369 4.76972 -1 ft 10 kts 57°
2026-04-17 12:27 52.30409 4.77073 -1 ft 10 kts 57°
2026-04-17 12:27 52.30444 4.77168 -1 ft 10 kts 59°
2026-04-17 12:28 52.30480 4.77261 -1 ft 9 kts 57°
2026-04-17 12:28 52.30511 4.77342 -1 ft 8 kts 57°
2026-04-17 12:28 52.30537 4.77408 -1 ft 5 kts 58°
2026-04-17 12:28 52.30542 4.77421 -1 ft 0 kts 58°
2026-04-17 12:29 52.30554 4.77453 -1 ft 0 kts 58°
2026-04-17 12:29 52.30558 4.77464 -1 ft 7 kts 58°
2026-04-17 12:29 52.30564 4.77541 -1 ft 6 kts 133°
2026-04-17 12:29 52.30527 4.77578 -1 ft 8 kts 153°
2026-04-17 12:30 52.30459 4.77634 -1 ft 11 kts 153°
2026-04-17 12:30 52.30393 4.77585 -2 ft 13 kts 241°
2026-04-17 12:30 52.30383 4.77557 -2 ft 0 kts 238°
2026-04-17 12:31 52.30296 4.77330 -4 ft 59 kts 238°
2026-04-17 12:31 52.29963 4.76463 -2 ft 120 kts 238°
2026-04-17 12:31 52.29414 4.75029 25 ft 166 kts 237°
2026-04-17 12:31 52.28807 4.73399 615 ft 171 kts 236°
2026-04-17 12:32 52.28179 4.71760 1401 ft 171 kts 238°
2026-04-17 12:32 52.27507 4.70029 1840 ft 191 kts 238°
2026-04-17 12:32 52.26562 4.68396 2300 ft 211 kts 212°
2026-04-17 12:32 52.25105 4.67883 3141 ft 222 kts 176°
2026-04-17 12:33 52.23683 4.68884 4040 ft 233 kts 140°
2026-04-17 12:33 52.22740 4.71079 4909 ft 239 kts 123°
2026-04-17 12:33 52.21916 4.73440 5782 ft 242 kts 123°
2026-04-17 12:33 52.21080 4.75858 6616 ft 245 kts 123°
2026-04-17 12:34 52.20233 4.78291 7219 ft 259 kts 123°
2026-04-17 12:34 52.17918 4.85269 8701 ft 297 kts 108°
2026-04-17 12:34 52.18105 4.92236 10367 ft 309 kts 71°
2026-04-17 12:34 52.19492 4.99315 10969 ft 351 kts 74°
2026-04-17 12:35 52.20989 5.07309 11872 ft 376 kts 74°
2026-04-17 12:35 52.22526 5.15562 13300 ft 385 kts 74°
2026-04-17 12:35 52.23064 5.24279 14583 ft 389 kts 99°
2026-04-17 12:35 52.21364 5.32604 15768 ft 390 kts 124°
2026-04-17 12:37 51.97199 5.84207 22797 ft 434 kts 134°
2026-04-17 12:37 51.93270 5.91556 23662 ft 440 kts 134°
2026-04-17 12:38 51.89176 5.99204 24387 ft 446 kts 134°
2026-04-17 12:38 51.85079 6.06838 25066 ft 451 kts 134°
2026-04-17 12:38 51.80850 6.14627 25740 ft 456 kts 134°
2026-04-17 12:38 51.76610 6.22365 26400 ft 462 kts 134°
2026-04-17 12:39 51.72328 6.30162 27052 ft 467 kts 134°
2026-04-17 12:39 51.68001 6.38013 27663 ft 472 kts 134°
2026-04-17 12:39 51.64431 6.44477 28149 ft 476 kts 134°
2026-04-17 12:39 51.62229 6.48469 28435 ft 478 kts 134°
2026-04-17 12:40 51.60020 6.52480 28719 ft 480 kts 133°
2026-04-17 12:40 51.57802 6.56499 28996 ft 483 kts 133°
2026-04-17 12:40 51.55564 6.60544 29268 ft 485 kts 133°
2026-04-17 12:40 51.53313 6.64602 29587 ft 486 kts 133°
2026-04-17 12:41 51.51062 6.68650 29985 ft 485 kts 133°
2026-04-17 12:41 51.48809 6.72693 30360 ft 485 kts 133°
2026-04-17 12:41 51.46555 6.76733 30685 ft 485 kts 133°
2026-04-17 12:41 51.44335 6.80709 30988 ft 485 kts 133°
2026-04-17 12:42 51.42048 6.84789 31326 ft 485 kts 133°
2026-04-17 12:42 51.39802 6.88813 31641 ft 485 kts 132°
2026-04-17 12:42 51.37621 6.92942 31950 ft 486 kts 130°
2026-04-17 12:42 51.35488 6.97207 32285 ft 486 kts 129°
2026-04-17 12:43 51.33414 7.01482 32635 ft 485 kts 128°
2026-04-17 12:43 51.31356 7.05756 32960 ft 485 kts 128°
2026-04-17 12:43 51.29284 7.10011 33184 ft 485 kts 130°
2026-04-17 12:43 51.26937 7.13860 33222 ft 484 kts 142°
2026-04-17 12:44 51.24212 7.16988 33220 ft 481 kts 152°
2026-04-17 12:44 51.18816 7.21302 33227 ft 480 kts 155°
2026-04-17 12:44 51.15964 7.24087 33223 ft 483 kts 144°
2026-04-17 12:45 51.13318 7.27393 33222 ft 483 kts 147°
2026-04-17 12:45 51.07451 7.32519 33221 ft 480 kts 157°
2026-04-17 12:46 51.01378 7.36977 33222 ft 480 kts 158°
2026-04-17 12:46 50.95333 7.41528 32554 ft 480 kts 156°
2026-04-17 12:46 50.92337 7.43888 30853 ft 486 kts 155°
2026-04-17 12:47 50.89296 7.46339 29024 ft 491 kts 155°
2026-04-17 12:47 50.86247 7.48817 27383 ft 491 kts 155°
2026-04-17 12:47 50.83271 7.51229 26017 ft 484 kts 155°
2026-04-17 12:47 50.80305 7.53614 24790 ft 474 kts 155°
2026-04-17 12:48 50.77394 7.55935 23588 ft 464 kts 155°
2026-04-17 12:48 50.74532 7.58201 22272 ft 455 kts 155°
2026-04-17 12:48 50.71739 7.60404 21069 ft 446 kts 155°
2026-04-17 12:48 50.68988 7.62571 19907 ft 438 kts 155°
2026-04-17 12:49 50.66283 7.64698 18797 ft 431 kts 155°
2026-04-17 12:49 50.63614 7.66793 17605 ft 424 kts 155°
2026-04-17 12:49 50.61036 7.68815 17126 ft 401 kts 155°
2026-04-17 12:49 50.58624 7.70712 16977 ft 373 kts 155°
2026-04-17 12:50 50.56384 7.72475 16849 ft 348 kts 156°
2026-04-17 12:50 50.54288 7.74119 16708 ft 327 kts 156°
2026-04-17 12:50 50.52307 7.75670 16589 ft 308 kts 156°
2026-04-17 12:50 50.50465 7.77111 16430 ft 292 kts 156°
2026-04-17 12:51 50.48624 7.78543 15575 ft 302 kts 156°
2026-04-17 12:51 50.46776 7.79971 14805 ft 310 kts 156°
2026-04-17 12:51 50.44832 7.81480 14196 ft 310 kts 155°
2026-04-17 12:51 50.42984 7.83203 13581 ft 309 kts 146°
2026-04-17 12:52 50.41298 7.85274 13040 ft 306 kts 143°
2026-04-17 12:52 50.39636 7.87348 12946 ft 307 kts 143°
2026-04-17 12:52 50.38082 7.89646 12856 ft 308 kts 126°
2026-04-17 12:52 50.37194 7.92688 12658 ft 310 kts 103°
2026-04-17 12:53 50.36810 7.96009 12395 ft 309 kts 99°
2026-04-17 12:53 50.36493 7.99326 12148 ft 307 kts 98°
2026-04-17 12:53 50.36185 8.02632 11834 ft 306 kts 98°
2026-04-17 12:53 50.35881 8.05894 11511 ft 305 kts 98°
2026-04-17 12:54 50.35572 8.09208 11186 ft 303 kts 98°
2026-04-17 12:54 50.35266 8.12467 10869 ft 302 kts 99°
2026-04-17 12:54 50.35064 8.14623 10656 ft 300 kts 99°
2026-04-17 12:54 50.34763 8.17840 10342 ft 297 kts 99°
2026-04-17 12:55 50.34465 8.21027 10022 ft 294 kts 99°
2026-04-17 12:55 50.34172 8.24179 9717 ft 293 kts 99°
2026-04-17 12:55 50.33879 8.27366 9469 ft 290 kts 98°
2026-04-17 12:55 50.33593 8.30484 9256 ft 289 kts 99°
2026-04-17 12:56 50.33309 8.33593 9211 ft 288 kts 99°
2026-04-17 12:56 50.33024 8.36704 9214 ft 289 kts 98°
2026-04-17 12:56 50.32738 8.39821 9211 ft 289 kts 99°
2026-04-17 12:56 50.32453 8.42930 9211 ft 288 kts 98°
2026-04-17 12:57 50.32167 8.46039 9216 ft 289 kts 99°
2026-04-17 12:57 50.31880 8.49151 9216 ft 289 kts 99°
2026-04-17 12:57 50.31591 8.52259 9203 ft 289 kts 99°
2026-04-17 12:57 50.31303 8.55371 9203 ft 289 kts 99°
2026-04-17 12:58 50.31016 8.58488 9023 ft 289 kts 99°
2026-04-17 12:58 50.30730 8.61584 8754 ft 287 kts 99°
2026-04-17 12:58 50.30447 8.64655 8494 ft 286 kts 99°
2026-04-17 12:58 50.30168 8.67728 8229 ft 285 kts 98°
2026-04-17 12:59 50.29893 8.70787 7990 ft 283 kts 99°
2026-04-17 12:59 50.29622 8.73835 7735 ft 282 kts 99°
2026-04-17 12:59 50.29355 8.76864 7477 ft 281 kts 99°
2026-04-17 12:59 50.29091 8.79858 7262 ft 271 kts 99°
2026-04-17 13:00 50.28845 8.82690 7187 ft 253 kts 99°
2026-04-17 13:00 50.28611 8.85379 7203 ft 248 kts 99°
2026-04-17 13:00 50.28381 8.88042 7197 ft 247 kts 99°
2026-04-17 13:00 50.28145 8.90737 7200 ft 247 kts 99°
2026-04-17 13:01 50.27913 8.93407 7196 ft 247 kts 99°
2026-04-17 13:01 50.27684 8.96061 7203 ft 247 kts 98°
2026-04-17 13:01 50.27451 8.98725 7195 ft 247 kts 99°
2026-04-17 13:01 50.27219 9.01378 7198 ft 247 kts 99°
2026-04-17 13:02 50.26858 9.04038 7069 ft 245 kts 116°
2026-04-17 13:02 50.25818 9.06078 6764 ft 240 kts 147°
2026-04-17 13:02 50.24325 9.07157 6459 ft 237 kts 162°
2026-04-17 13:02 50.22757 9.07960 6121 ft 237 kts 164°
2026-04-17 13:03 50.21165 9.08583 5780 ft 235 kts 179°
2026-04-17 13:03 50.19602 9.08026 5445 ft 231 kts 212°
2026-04-17 13:03 50.18504 9.06264 5135 ft 229 kts 244°
2026-04-17 13:03 50.17939 9.04010 5014 ft 220 kts 243°
2026-04-17 13:04 50.16937 9.02300 5023 ft 211 kts 217°
2026-04-17 13:04 50.15813 9.00888 5014 ft 211 kts 220°
2026-04-17 13:04 50.14692 8.99423 5020 ft 210 kts 220°
2026-04-17 13:04 50.13617 8.97877 5012 ft 210 kts 231°
2026-04-17 13:05 50.12867 8.95926 5018 ft 210 kts 245°
2026-04-17 13:05 50.12326 8.93864 4955 ft 202 kts 249°
2026-04-17 13:05 50.11851 8.91859 4783 ft 192 kts 249°
2026-04-17 13:05 50.11397 8.89924 4513 ft 189 kts 249°
2026-04-17 13:06 50.10946 8.88007 4255 ft 187 kts 249°
2026-04-17 13:06 50.10501 8.86113 4001 ft 186 kts 249°
2026-04-17 13:06 50.10055 8.84217 3777 ft 186 kts 249°
2026-04-17 13:06 50.09611 8.82328 3526 ft 186 kts 249°
2026-04-17 13:07 50.09163 8.80432 3275 ft 187 kts 249°
2026-04-17 13:07 50.08707 8.78495 3048 ft 187 kts 249°
2026-04-17 13:07 50.08263 8.76616 2778 ft 182 kts 249°
2026-04-17 13:07 50.07828 8.74775 2521 ft 181 kts 249°
2026-04-17 13:08 50.07402 8.72972 2352 ft 177 kts 249°
2026-04-17 13:08 50.06963 8.71126 2777 ft 189 kts 249°
2026-04-17 13:08 50.06474 8.69078 3252 ft 216 kts 249°
2026-04-17 13:08 50.05915 8.66738 3663 ft 246 kts 249°
2026-04-17 13:09 50.05276 8.64070 3966 ft 283 kts 249°
2026-04-17 13:09 50.04565 8.61106 4179 ft 280 kts 249°
2026-04-17 13:09 50.03908 8.58362 4399 ft 265 kts 249°
2026-04-17 13:09 50.03271 8.55679 4617 ft 263 kts 249°
2026-04-17 13:10 50.02651 8.53000 4799 ft 263 kts 249°
2026-04-17 13:10 50.02020 8.50336 4955 ft 263 kts 249°
2026-04-17 13:10 50.01162 8.47841 5069 ft 261 kts 226°
2026-04-17 13:10 49.99660 8.46286 5354 ft 263 kts 198°
2026-04-17 13:11 49.97840 8.46048 5632 ft 266 kts 169°
2026-04-17 13:11 49.96164 8.47196 5913 ft 269 kts 141°
2026-04-17 13:11 49.95016 8.49483 6195 ft 272 kts 114°
2026-04-17 13:11 49.94465 8.52271 6472 ft 274 kts 104°
2026-04-17 13:12 49.94017 8.55202 6743 ft 276 kts 104°
2026-04-17 13:12 49.93165 8.60993 6995 ft 277 kts 102°
2026-04-17 13:12 49.93155 8.63938 7004 ft 268 kts 79°
2026-04-17 13:13 49.93615 8.66646 7011 ft 253 kts 74°
2026-04-17 13:13 49.94113 8.69229 7007 ft 248 kts 74°
2026-04-17 13:13 49.94616 8.71781 7009 ft 247 kts 74°
2026-04-17 13:13 49.95120 8.74329 7014 ft 247 kts 73°
2026-04-17 13:14 49.95625 8.76877 7009 ft 247 kts 73°
2026-04-17 13:14 49.96123 8.79415 7121 ft 247 kts 74°
2026-04-17 13:14 49.96625 8.81971 7178 ft 248 kts 74°
2026-04-17 13:14 49.97125 8.84525 7196 ft 248 kts 74°
2026-04-17 13:15 49.97626 8.87092 7198 ft 248 kts 74°
2026-04-17 13:15 49.98120 8.89625 7199 ft 248 kts 74°
2026-04-17 13:15 49.98619 8.92192 7199 ft 247 kts 74°
2026-04-17 13:15 49.99116 8.94747 7159 ft 248 kts 74°
2026-04-17 13:16 49.99613 8.97314 6913 ft 246 kts 74°
2026-04-17 13:16 50.00107 8.99853 6649 ft 244 kts 74°
2026-04-17 13:16 50.00574 9.02258 6372 ft 243 kts 74°
2026-04-17 13:16 50.01062 9.04782 6035 ft 243 kts 74°
2026-04-17 13:17 50.01491 9.06836 5758 ft 244 kts 66°
2026-04-17 13:17 50.02531 9.08890 5434 ft 242 kts 34°
2026-04-17 13:17 50.04047 9.09778 5117 ft 240 kts
2026-04-17 13:17 50.05688 9.09484 4789 ft 238 kts 346°
2026-04-17 13:18 50.07287 9.08856 4455 ft 237 kts 344°
2026-04-17 13:18 50.08884 9.08189 4121 ft 237 kts 343°
2026-04-17 13:18 50.10456 9.07512 3997 ft 233 kts 340°
2026-04-17 13:18 50.11807 9.06157 4015 ft 232 kts 308°
2026-04-17 13:19 50.12533 9.03940 4031 ft 231 kts 287°
2026-04-17 13:19 50.12987 9.01539 4023 ft 232 kts 284°
2026-04-17 13:19 50.13291 8.99077 4018 ft 230 kts 269°
2026-04-17 13:19 50.12969 8.96590 4013 ft 230 kts 249°
2026-04-17 13:20 50.12421 8.94271 4014 ft 231 kts 249°
2026-04-17 13:20 50.11867 8.91929 4025 ft 231 kts 249°
2026-04-17 13:20 50.11315 8.89582 4013 ft 230 kts 249°
2026-04-17 13:20 50.10765 8.87242 4018 ft 230 kts 249°
2026-04-17 13:21 50.10217 8.84906 3832 ft 230 kts 249°
2026-04-17 13:21 50.09665 8.82565 3552 ft 229 kts 249°
2026-04-17 13:21 50.09117 8.80241 3247 ft 228 kts 249°
2026-04-17 13:21 50.08585 8.77984 2953 ft 221 kts 249°
2026-04-17 13:22 50.08060 8.75758 2666 ft 217 kts 249°
2026-04-17 13:22 50.07544 8.73576 2396 ft 211 kts 249°
2026-04-17 13:22 50.07051 8.71492 2133 ft 195 kts 249°
2026-04-17 13:22 50.06599 8.69582 1859 ft 183 kts 249°
2026-04-17 13:23 50.06163 8.67744 1617 ft 180 kts 249°
2026-04-17 13:23 50.05731 8.65925 1363 ft 179 kts 249°
2026-04-17 13:23 50.05299 8.64107 1112 ft 179 kts 250°
2026-04-17 13:23 50.04862 8.62278 801 ft 180 kts 251°
2026-04-17 13:24 50.04434 8.60463 591 ft 182 kts 251°
2026-04-17 13:24 50.03985 8.58610 409 ft 180 kts 251°
2026-04-17 13:24 50.03624 8.56990 354 ft 141 kts 242°
2026-04-17 13:24 50.03348 8.55892 348 ft 56 kts 249°
2026-04-17 13:25 50.03312 8.55494 343 ft 34 kts 280°
2026-04-17 13:25 50.03339 8.55273 342 ft 20 kts 278°
2026-04-17 13:25 50.03344 8.55224 342 ft 1 kts 278°
2026-04-17 13:25 50.03346 8.55201 344 ft 4 kts 282°
2026-04-17 13:26 50.03360 8.55180 351 ft 2 kts 332°
2026-04-17 13:26 50.03375 8.55168 343 ft 6 kts 332°
2026-04-17 13:26 50.03430 8.55217 351 ft 10 kts 67°
2026-04-17 13:26 50.03453 8.55309 352 ft 9 kts 71°
2026-04-17 13:27 50.03478 8.55417 353 ft 10 kts 70°
2026-04-17 13:27 50.03502 8.55515 347 ft 10 kts 69°
2026-04-17 13:27 50.03517 8.55577 348 ft 9 kts 69°
2026-04-17 13:27 50.03548 8.55708 349 ft 9 kts 70°
2026-04-17 13:28 50.03570 8.55798 355 ft 13 kts 69°
2026-04-17 13:28 50.03654 8.56147 355 ft 41 kts 69°
2026-04-17 13:28 50.03720 8.56427 357 ft 40 kts 70°
2026-04-17 13:28 50.03812 8.56805 361 ft 35 kts 68°
2026-04-17 13:29 50.03895 8.57157 363 ft 34 kts 71°
2026-04-17 13:29 50.03974 8.57487 367 ft 32 kts 69°
2026-04-17 13:29 50.04050 8.57810 367 ft 32 kts 69°
2026-04-17 13:29 50.04131 8.58130 370 ft 32 kts 68°